sat.trackr.live / text

‹ back to catalog

STARLINK-35808

NORAD 68052 · 2026-041N

PAYLOAD ACTIVE UNKNOWN

§ Identity

Operator
Country
US
Launch date
2026-03-02
Launch site
AFETR
Launch vehicle
Mass (kg)
RCS (m²)

Purposes: comms

External: N2YO · Heavens-Above · Gunter

§ Orbital elements

Epoch: 2026-09-20T04:06:17.996832Z

Period
93.85 min
Inclination
53.1576°
Eccentricity
0.0000789
Mean motion
15.34409579 rev/d
Perigee alt
462.1 km
Apogee alt
463.2 km
Semi-major
6,840.8 km
B*
6.7006e-4
RAAN
223.0273°
Arg perigee
76.1960°
Mean anomaly
283.9130°
Rev number
3,121

§ Raw data

STARLINK-358081 68052U 26041N   26263.17104163  .00022337  00000+0  67006-3 0  99942 68052  53.1576 223.0273 0000789  76.1960 283.9130 15.34409579 31212

JSON: /api/v1/satellites/68052 · /tle

For live sub-satellite position, see the globe view (requires WebGL).

§ Visibility from observer

Set your observer location to see the next 7 days of passes ≥ 10°. The values pass through the URL so the page stays shareable.

No JS? Fill the form by hand. The geolocation button needs JavaScript.